EW9766 Weather Reports


time (UTC)temp
C
wind
direction
speed
KPH
gust
KPH
rain 1hr
cm
rain 24hr
cm
rain mn
cm
humidity
%
barometer
mb
20200531071530 8 268 6.4 0.0 0.00 0.48 0.00 75 1013.4
20200531070032 8 273 8.0 0.0 0.00 0.48 0.00 75 1013.4
20200531064537 8 300 9.7 0.0 0.00 0.48 0.00 76 1013.4
20200531063034 8 274 9.7 0.0 0.00 0.48 0.00 76 1013.8
20200531061535 8 241 11.3 0.0 0.00 0.48 0.00 76 1013.8
20200531060033 8 255 8.0 0.0 0.00 0.48 0.00 78 1013.8
20200531054530 8 276 6.4 0.0 0.00 0.48 0.00 79 1013.8
20200531053035 8 302 6.4 0.0 0.00 0.48 0.00 80 1013.8
20200531051536 8 304 4.8 0.0 0.00 0.48 0.00 79 1013.4
20200531050039 8 314 4.8 0.0 0.00 0.48 0.00 79 1013.4
20200531044535 8 347 1.6 0.0 0.00 0.48 0.00 79 1013.4
20200531043032 8 342 3.2 0.0 0.00 0.48 0.00 78 1013.4
20200531041532 8 299 6.4 0.0 0.00 0.48 0.00 76 1013.4
20200531040031 8 290 8.0 0.0 0.00 0.48 0.00 74 1013.4
20200531034531 8 294 11.3 0.0 0.00 0.48 0.00 75 1013.1
20200531033036 8 302 6.4 0.0 0.00 0.48 0.00 76 1012.3
20200531031532 8 277 9.7 0.0 0.00 0.48 0.00 78 1012.0
20200531030029 8 327 14.5 0.0 0.00 0.48 0.00 78 1012.0
20200531024532 8 314 11.3 0.0 0.00 0.48 0.00 78 1012.3
20200531023032 8 311 14.5 0.0 0.00 0.48 0.00 79 1012.0
20200531021537 8 308 14.5 0.0 0.00 0.48 0.00 77 1012.0
20200531020036 9 300 14.5 0.0 0.00 0.48 0.00 77 1012.0
20200531014529 8 318 14.5 0.0 0.00 0.48 0.00 78 1011.6
20200531013032 9 316 12.9 0.0 0.00 0.48 0.00 80 1011.6
20200531011533 10 326 11.3 0.0 0.00 0.48 0.00 80 1011.2
20200531010032 9 313 14.5 0.0 0.00 0.48 0.00 81 1010.9
20200531004531 8 321 9.7 0.0 0.00 0.48 0.00 84 1010.9
20200531003032 8 312 11.3 0.0 0.00 0.48 0.00 84 1011.2
20200531001533 9 312 17.7 0.0 0.03 0.48 0.00 82 1010.9
20200531000043 10 306 12.9 0.0 0.03 0.48 0.00 81 1010.2
20200530234528 10 332 16.1 0.0 0.20 0.48 0.00 82 1009.8
20200530233035 10 326 8.0 0.0 0.48 0.48 0.00 82 1009.8
20200530231531 9 325 8.0 0.0 0.46 0.46 0.00 84 1009.1
20200530230031 10 347 11.3 0.0 0.46 0.46 0.00 81 1009.8
20200530224532 10 181 14.5 0.0 0.28 0.28 0.00 73 1010.2
20200530223034 11 215 14.5 0.0 0.00 0.00 0.00 70 1009.4
20200530221531 12 264 11.3 0.0 0.00 0.00 0.00 69 1009.1
20200530220033 13 314 9.7 0.0 0.00 0.00 0.00 65 1008.0
20200530214531 15 245 8.0 0.0 0.00 0.00 0.00 64 1008.0
20200530213041 16 50 9.7 0.0 0.00 0.00 0.00 61 1007.3
20200530211536 18 74 6.4 0.0 0.00 0.00 0.00 55 1007.3
20200530210032 19 194 6.4 0.0 0.00 0.00 0.00 55 1007.3
20200530204534 18 206 8.0 0.0 0.00 0.00 0.00 53 1006.9
20200530203031 22 206 16.1 0.0 0.00 0.00 0.00 48 1006.9
20200530201531 23 214 9.7 0.0 0.00 0.00 0.00 47 1006.2
20200530200035 24 230 9.7 0.0 0.00 0.00 0.00 49 1005.8
20200530194530 25 284 12.9 0.0 0.00 0.00 0.00 49 1005.5
20200530193028 25 297 12.9 0.0 0.00 0.00 0.00 49 1005.5
20200530191541 25 312 11.3 0.0 0.00 0.00 0.00 53 1005.8
20200530190031 24 349 9.7 0.0 0.00 0.00 0.00 56 1005.8
20200530184532 23 323 6.4 0.0 0.00 0.00 0.00 57 1005.8
20200530183034 23 338 4.8 0.0 0.00 0.00 0.00 57 1005.8
20200530181532 23 35 1.6 0.0 0.00 0.00 0.00 59 1005.8
20200530180034 22 71 1.6 0.0 0.00 0.00 0.00 62 1006.2
20200530174529 20 73 0.0 0.0 0.00 0.00 0.00 64 1006.5
20200530173102 20 27 0.0 0.0 0.00 0.00 0.00 64 1006.9
20200530171529 20 314 3.2 0.0 0.00 0.00 0.00 65 1006.9
20200530170031 20 318 4.8 0.0 0.00 0.00 0.00 65 1006.9
20200530164530 20 318 4.8 0.0 0.00 0.00 0.00 64 1007.3
20200530163036 21 55 1.6 0.0 0.00 0.00 0.00 62 1007.3
20200530161540 20 133 1.6 0.0 0.00 0.00 0.00 63 1008.0
20200530160031 19 79 1.6 0.0 0.00 0.00 0.00 66 1008.4
20200530154538 18 310 0.0 0.0 0.00 0.00 0.00 68 1008.4
20200530153032 17 297 1.6 0.0 0.00 0.00 0.00 71 1008.4
20200530151531 16 27 0.0 0.0 0.00 0.00 0.00 75 1008.4
20200530150029 16 330 1.6 0.0 0.00 0.00 0.00 73 1008.4
20200530144529 17 46 4.8 0.0 0.00 0.00 0.00 74 1008.7
20200530143030 17 354 1.6 0.0 0.00 0.00 0.00 74 1009.1
20200530141536 16 331 4.8 0.0 0.00 0.00 0.00 76 1009.1
20200530140029 16 93 3.2 0.0 0.00 0.00 0.00 78 1008.7
20200530134532 15 182 1.6 0.0 0.00 0.00 0.00 77 1008.4
20200530133031 15 197 4.8 0.0 0.00 0.00 0.00 76 1008.0
20200530131529 15 180 3.2 0.0 0.00 0.00 0.00 74 1008.0
20200530130031 15 214 0.0 0.0 0.00 0.00 0.00 73 1008.4
20200530124530 16 94 0.0 0.0 0.00 0.00 0.00 71 1008.4
20200530123037 16 193 3.2 0.0 0.00 0.00 0.00 68 1008.4
20200530121530 16 159 4.8 0.0 0.00 0.00 0.00 68 1008.4
20200530120033 16 161 6.4 0.0 0.00 0.00 0.00 69 1008.7
20200530114530 16 166 6.4 0.0 0.00 0.00 0.00 70 1008.7
20200530113032 16 140 4.8 0.0 0.00 0.00 0.00 70 1008.7
20200530111532 16 174 4.8 0.0 0.00 0.00 0.00 69 1008.7
20200530110030 16 166 8.0 0.0 0.00 0.00 0.00 71 1008.4
20200530104532 15 148 6.4 0.0 0.00 0.00 0.00 72 1008.4
20200530103033 15 170 4.8 0.0 0.00 0.00 0.00 72 1008.7
20200530101535 15 172 0.0 0.0 0.00 0.00 0.00 70 1008.7
20200530100032 16 179 6.4 0.0 0.00 0.00 0.00 70 1008.7
20200530094531 16 139 3.2 0.0 0.00 0.00 0.00 69 1009.1
20200530093029 16 187 4.8 0.0 0.00 0.00 0.00 67 1009.4
20200530091533 16 135 4.8 0.0 0.00 0.00 0.00 65 1009.4
20200530090029 17 178 3.2 0.0 0.00 0.00 0.00 63 1009.8
20200530084532 17 160 4.8 0.0 0.00 0.00 0.00 63 1009.8
20200530083033 17 149 6.4 0.0 0.00 0.00 0.00 64 1010.2
20200530081536 17 165 4.8 0.0 0.00 0.00 0.00 63 1010.2
20200530080036 17 178 4.8 0.0 0.00 0.00 0.00 62 1010.2
20200530074529 17 154 4.8 0.0 0.00 0.00 0.00 62 1010.2
20200530073032 17 142 6.4 0.0 0.00 0.00 0.00 62 1010.2